This demonstration page uses our WeatherBlox Daily Observations layout. Learn more.

Left ArrowRight Arrow

34.74481, -87.66753

Hourly Observations for October 25, 2021

Temp ( °F °C ) Dew Point ( °F °C ) Humidity (%) Winds ( mph kmh ) Pressure ( in mb ) Visibility ( mi km ) Precip ( " mm )
12:53 am 00:53 Clear 66 18.9 57 13.9 73 73 S 10 17 29.89 1012 10 16 N/A
1:53 am 01:53 Mostly Cloudy 67 19.4 59 15 76 76 S 7 11 29.90 1013 10 16 N/A
2:53 am 02:53 Cloudy 69 20.6 61 16.1 76 76 S 9 15 29.87 1012 10 16 N/A
3:02 am 03:02 Cloudy 69 20.6 61 16.1 76 76 S 9 15 29.88 1012 10 16 N/A
3:40 am 03:40 Cloudy 70 21.1 62 16.7 76 76 SSW 10 17 29.90 1012 10 16 N/A
3:53 am 03:53 Cloudy 70 21.1 62 16.7 76 76 S 10 17 29.88 1012 10 16 N/A
4:14 am 04:14 Cloudy 70 21.1 62 16.7 76 76 SSW 10 17 29.88 1012 10 16 N/A
4:53 am 04:53 Cloudy 69 20.6 63 17.2 81 81 SSW 10 17 29.88 1012 10 16 N/A
5:53 am 05:53 Mostly Cloudy 69 20.6 62 16.7 78 78 SSW 9 15 29.86 1011 10 16 N/A
6:08 am 06:08 Partly Cloudy 68 20 62 16.7 81 81 SSW 8 13 29.87 1011 10 16 N/A
6:53 am 06:53 Mostly Cloudy 69 20.6 62 16.7 78 78 SSW 9 15 29.87 1012 10 16 N/A
7:25 am 07:25 Cloudy with Rain 68 20 63 17.2 84 84 SSW 8 13 29.87 1011 7 11 0.02 0.51
7:53 am 07:53 Cloudy with Rain 68 20 64 17.8 87 87 S 9 15 29.86 1011 3 5 0.07 1.78
7:56 am 07:56 Cloudy with Heavy Rain 68 20 64 17.8 87 87 S 9 15 29.86 1011 2 3 0.04 1.02
8:13 am 08:13 Cloudy with Light Rain 68 20 64 17.8 87 87 SSW 9 15 29.87 1011 3 5 0.08 2.03
8:20 am 08:20 Cloudy with Light Rain 68 20 64 17.8 87 87 SW 9 15 29.87 1011 7 11 0.08 2.03
8:29 am 08:29 Cloudy 69 20.6 64 17.8 84 84 SW 12 19 29.87 1011 9 14 0.08 2.03
8:53 am 08:53 Cloudy 69 20.6 64 17.8 84 84 SW 15 24 29.87 1011 10 16 0.09 2.29
9:53 am 09:53 Cloudy 70 21.1 65 18.3 84 84 SW 14 22 29.85 1011 10 16 N/A
10:53 am 10:53 Cloudy 71 21.7 65 18.3 81 81 WSW 13 20 29.85 1011 10 16 N/A
11:12 am 11:12 Cloudy 71 21.7 65 18.3 81 81 W 12 19 29.85 1011 10 16 N/A
11:53 am 11:53 Cloudy 73 22.8 65 18.3 76 76 W 14 22 29.85 1011 10 16 N/A
12:32 pm 12:32 Partly Cloudy 75 23.9 63 17.2 66 66 W 13 20 29.83 1010 10 16 N/A
12:53 pm 12:53 Mostly Cloudy 77 25 63 17.2 62 62 W 16 26 29.82 1010 10 16 N/A
1:53 pm 13:53 Mostly Sunny 79 26.1 57 13.9 47 47 WNW 18 30 29.81 1010 10 16 N/A
2:53 pm 14:53 Sunny 78 25.6 55 12.8 45 45 WNW 15 24 29.83 1010 10 16 N/A
3:53 pm 15:53 Sunny 76 24.4 56 13.3 50 50 WNW 15 24 29.85 1011 10 16 N/A
4:53 pm 16:53 Sunny 70 21.1 55 12.8 59 59 NW 14 22 29.88 1012 10 16 N/A
5:53 pm 17:53 Mostly Cloudy 66 18.9 52 11.1 61 61 NNW 8 13 29.92 1013 10 16 N/A
6:53 pm 18:53 Mostly Cloudy 63 17.2 50 10 63 63 N 12 19 29.96 1014 10 16 N/A
7:00 pm 19:00 Cloudy 62 16.7 50 10 65 65 N 9 15 29.96 1015 10 16 N/A
7:17 pm 19:17 Mostly Cloudy 61 16.1 48 8.9 63 63 N 9 15 29.98 1015 10 16 N/A
7:53 pm 19:53 Cloudy 61 16.1 47 8.3 60 60 N 10 17 29.98 1015 10 16 N/A
8:53 pm 20:53 Cloudy 59 15 45 7.2 60 60 NNW 9 15 30.00 1016 10 16 N/A
9:53 pm 21:53 Cloudy 59 15 45 7.2 60 60 NNW 7 11 30.02 1017 10 16 N/A
10:44 pm 22:44 Cloudy 59 15 45 7.2 60 60 N 10 17 30.04 1017 10 16 N/A
10:53 pm 22:53 Cloudy 58 14.4 45 7.2 62 62 N 9 15 30.03 1017 10 16 N/A
11:53 pm 23:53 Cloudy 58 14.4 45 7.2 62 62 NNE 10 17 30.03 1017 10 16 N/A

Powered by AerisWeather